owner,sensor,date,latitude,longitude,vertical_datum,sea_water_practical_salinity,qcFlag 
NERRS,ioos:station:NOAA.NERRS:gndbcwq:1,2014-09-01T00:00:00Z,30.3836,-88.4364,0.68,27.3,1111122 
NERRS,ioos:station:NOAA.NERRS:gndbcwq:1,2014-09-01T02:00:00Z,30.3836,-88.4364,0.73,27.3,1111122 
NERRS,ioos:station:NOAA.NERRS:gndbcwq:1,2014-09-01T03:00:00Z,30.3836,-88.4364,0.77,27.4,1111122 
NERRS,ioos:station:NOAA.NERRS:gndbcwq:1,2014-09-01T04:00:00Z,30.3836,-88.4364,0.8,27.4,1111122 
NERRS,ioos:station:NOAA.NERRS:gndbcwq:1,2014-09-01T05:00:00Z,30.3836,-88.4364,0.83,27.5,1111122 
NERRS,ioos:station:NOAA.NERRS:gndbcwq:1,2014-09-01T06:00:00Z,30.3836,-88.4364,0.86,27.5,1111122 
NERRS,ioos:station:NOAA.NERRS:gndbcwq:1,2014-09-01T07:00:00Z,30.3836,-88.4364,0.88,27.3,1111122 
NERRS,ioos:station:NOAA.NERRS:gndbcwq:1,2014-09-01T08:00:00Z,30.3836,-88.4364,0.9,27.0,1111122 
NERRS,ioos:station:NOAA.NERRS:gndbcwq:1,2014-09-01T09:00:00Z,30.3836,-88.4364,0.92,26.9,1111122 
NERRS,ioos:station:NOAA.NERRS:gndbcwq:1,2014-09-01T10:00:00Z,30.3836,-88.4364,0.91,26.8,1111122 
NERRS,ioos:station:NOAA.NERRS:gndbcwq:1,2014-09-01T11:00:00Z,30.3836,-88.4364,0.87,27.0,1111122 
NERRS,ioos:station:NOAA.NERRS:gndbcwq:1,2014-09-01T12:00:00Z,30.3836,-88.4364,0.83,27.2,1111122 
NERRS,ioos:station:NOAA.NERRS:gndbcwq:1,2014-09-01T13:00:00Z,30.3836,-88.4364,0.79,27.4,1111122 
NERRS,ioos:station:NOAA.NERRS:gndbcwq:1,2014-09-01T14:00:00Z,30.3836,-88.4364,0.75,27.4,1111122 
NERRS,ioos:station:NOAA.NERRS:gndbcwq:1,2014-09-01T15:00:00Z,30.3836,-88.4364,0.71,27.6,1111122 
NERRS,ioos:station:NOAA.NERRS:gndbcwq:1,2014-09-01T16:00:00Z,30.3836,-88.4364,0.67,27.7,1111122 
NERRS,ioos:station:NOAA.NERRS:gndbcwq:1,2014-09-01T17:00:00Z,30.3836,-88.4364,0.64,27.4,1111122 
NERRS,ioos:station:NOAA.NERRS:gndbcwq:1,2014-09-01T18:00:00Z,30.3836,-88.4364,0.64,27.3,1111122 
NERRS,ioos:station:NOAA.NERRS:gndbcwq:1,2014-09-01T19:00:00Z,30.3836,-88.4364,0.61,27.3,1111122 
NERRS,ioos:station:NOAA.NERRS:gndbcwq:1,2014-09-01T20:00:00Z,30.3836,-88.4364,0.61,27.2,1111122 
NERRS,ioos:station:NOAA.NERRS:gndbcwq:1,2014-09-01T21:00:00Z,30.3836,-88.4364,0.59,27.3,1111122 
NERRS,ioos:station:NOAA.NERRS:gndbcwq:1,2014-09-01T22:00:00Z,30.3836,-88.4364,0.63,27.3,1111122 
NERRS,ioos:station:NOAA.NERRS:gndbcwq:1,2014-09-01T23:00:00Z,30.3836,-88.4364,0.66,27.3,1111122 
NERRS,ioos:station:NOAA.NERRS:gndbcwq:1,2014-09-02T00:00:00Z,30.3836,-88.4364,0.68,27.4,1111122 
NERRS,ioos:station:NOAA.NERRS:gndbcwq:1,2014-09-02T01:00:00Z,30.3836,-88.4364,0.69,27.3,1111122 
NERRS,ioos:station:NOAA.NERRS:gndbcwq:1,2014-09-02T02:00:00Z,30.3836,-88.4364,0.72,27.4,1111122 
NERRS,ioos:station:NOAA.NERRS:gndbcwq:1,2014-09-02T03:00:00Z,30.3836,-88.4364,0.76,27.4,1111122 
NERRS,ioos:station:NOAA.NERRS:gndbcwq:1,2014-09-02T04:00:00Z,30.3836,-88.4364,0.76,27.4,1111122 
NERRS,ioos:station:NOAA.NERRS:gndbcwq:1,2014-09-02T05:00:00Z,30.3836,-88.4364,0.79,27.4,1111122 
NERRS,ioos:station:NOAA.NERRS:gndbcwq:1,2014-09-02T06:00:00Z,30.3836,-88.4364,0.83,27.3,1111122 
NERRS,ioos:station:NOAA.NERRS:gndbcwq:1,2014-09-02T07:00:00Z,30.3836,-88.4364,0.87,27.4,1111122 
NERRS,ioos:station:NOAA.NERRS:gndbcwq:1,2014-09-02T08:00:00Z,30.3836,-88.4364,0.92,26.9,1111122 
NERRS,ioos:station:NOAA.NERRS:gndbcwq:1,2014-09-02T09:00:00Z,30.3836,-88.4364,0.94,26.3,1111122 
NERRS,ioos:station:NOAA.NERRS:gndbcwq:1,2014-09-02T10:00:00Z,30.3836,-88.4364,0.91,26.6,1111122 
NERRS,ioos:station:NOAA.NERRS:gndbcwq:1,2014-09-02T11:00:00Z,30.3836,-88.4364,0.86,26.8,1111122 
NERRS,ioos:station:NOAA.NERRS:gndbcwq:1,2014-09-02T12:00:00Z,30.3836,-88.4364,0.81,27.1,1111122 
NERRS,ioos:station:NOAA.NERRS:gndbcwq:1,2014-09-02T13:00:00Z,30.3836,-88.4364,0.77,27.3,1111122 
NERRS,ioos:station:NOAA.NERRS:gndbcwq:1,2014-09-02T14:00:00Z,30.3836,-88.4364,0.73,27.5,1111122 
NERRS,ioos:station:NOAA.NERRS:gndbcwq:1,2014-09-02T15:00:00Z,30.3836,-88.4364,0.69,27.6,1111122 
NERRS,ioos:station:NOAA.NERRS:gndbcwq:1,2014-09-02T16:00:00Z,30.3836,-88.4364,0.63,27.7,1111122 
NERRS,ioos:station:NOAA.NERRS:gndbcwq:1,2014-09-02T17:00:00Z,30.3836,-88.4364,0.56,27.5,1111122 
NERRS,ioos:station:NOAA.NERRS:gndbcwq:1,2014-09-02T18:00:00Z,30.3836,-88.4364,0.53,27.0,1111122 
NERRS,ioos:station:NOAA.NERRS:gndbcwq:1,2014-09-02T19:00:00Z,30.3836,-88.4364,0.51,26.9,1111122 
NERRS,ioos:station:NOAA.NERRS:gndbcwq:1,2014-09-02T20:00:00Z,30.3836,-88.4364,0.48,26.8,1111122 
NERRS,ioos:station:NOAA.NERRS:gndbcwq:1,2014-09-02T21:00:00Z,30.3836,-88.4364,0.48,26.6,1111122 
NERRS,ioos:station:NOAA.NERRS:gndbcwq:1,2014-09-02T22:00:00Z,30.3836,-88.4364,0.47,26.5,1111122 
NERRS,ioos:station:NOAA.NERRS:gndbcwq:1,2014-09-03T00:00:00Z,30.3836,-88.4364,0.55,26.9,1111122 
NERRS,ioos:station:NOAA.NERRS:gndbcwq:1,2014-09-03T01:00:00Z,30.3836,-88.4364,0.59,27.4,1111122 
NERRS,ioos:station:NOAA.NERRS:gndbcwq:1,2014-09-03T02:00:00Z,30.3836,-88.4364,0.63,27.4,1111122 
NERRS,ioos:station:NOAA.NERRS:gndbcwq:1,2014-09-03T03:00:00Z,30.3836,-88.4364,0.67,27.4,1111122 
NERRS,ioos:station:NOAA.NERRS:gndbcwq:1,2014-09-03T04:00:00Z,30.3836,-88.4364,0.68,27.4,1111122 
NERRS,ioos:station:NOAA.NERRS:gndbcwq:1,2014-09-03T05:00:00Z,30.3836,-88.4364,0.69,27.4,1111122 
NERRS,ioos:station:NOAA.NERRS:gndbcwq:1,2014-09-03T06:00:00Z,30.3836,-88.4364,0.71,27.4,1111122 
NERRS,ioos:station:NOAA.NERRS:gndbcwq:1,2014-09-03T07:00:00Z,30.3836,-88.4364,0.73,27.3,1111122 
NERRS,ioos:station:NOAA.NERRS:gndbcwq:1,2014-09-03T08:00:00Z,30.3836,-88.4364,0.77,27.4,1111122 
NERRS,ioos:station:NOAA.NERRS:gndbcwq:1,2014-09-03T09:00:00Z,30.3836,-88.4364,0.8,27.4,1111122 
NERRS,ioos:station:NOAA.NERRS:gndbcwq:1,2014-09-03T10:00:00Z,30.3836,-88.4364,0.82,27.3,1111122 
NERRS,ioos:station:NOAA.NERRS:gndbcwq:1,2014-09-03T11:00:00Z,30.3836,-88.4364,0.83,27.2,1111122 
NERRS,ioos:station:NOAA.NERRS:gndbcwq:1,2014-09-03T12:00:00Z,30.3836,-88.4364,0.84,27.0,1111122 
NERRS,ioos:station:NOAA.NERRS:gndbcwq:1,2014-09-03T13:00:00Z,30.3836,-88.4364,0.82,27.1,1111122 
NERRS,ioos:station:NOAA.NERRS:gndbcwq:1,2014-09-03T14:00:00Z,30.3836,-88.4364,0.75,27.3,1111122 
NERRS,ioos:station:NOAA.NERRS:gndbcwq:1,2014-09-03T15:00:00Z,30.3836,-88.4364,0.68,27.4,1111122 
NERRS,ioos:station:NOAA.NERRS:gndbcwq:1,2014-09-03T16:00:00Z,30.3836,-88.4364,0.59,27.5,1111122 
NERRS,ioos:station:NOAA.NERRS:gndbcwq:1,2014-09-04T01:00:00Z,30.3836,-88.4364,0.51,27.1,1111122 
NERRS,ioos:station:NOAA.NERRS:gndbcwq:1,2014-09-04T02:00:00Z,30.3836,-88.4364,0.53,27.2,1111122 
NERRS,ioos:station:NOAA.NERRS:gndbcwq:1,2014-09-04T03:00:00Z,30.3836,-88.4364,0.59,27.3,1111122 
NERRS,ioos:station:NOAA.NERRS:gndbcwq:1,2014-09-04T04:00:00Z,30.3836,-88.4364,0.62,27.4,1111122 
NERRS,ioos:station:NOAA.NERRS:gndbcwq:1,2014-09-04T05:00:00Z,30.3836,-88.4364,0.68,27.5,1111122 
NERRS,ioos:station:NOAA.NERRS:gndbcwq:1,2014-09-04T06:00:00Z,30.3836,-88.4364,0.72,27.5,1111122 
NERRS,ioos:station:NOAA.NERRS:gndbcwq:1,2014-09-04T07:00:00Z,30.3836,-88.4364,0.76,27.5,1111122 
NERRS,ioos:station:NOAA.NERRS:gndbcwq:1,2014-09-04T08:00:00Z,30.3836,-88.4364,0.79,27.5,1111122 
NERRS,ioos:station:NOAA.NERRS:gndbcwq:1,2014-09-04T09:00:00Z,30.3836,-88.4364,0.83,27.2,1111122 
NERRS,ioos:station:NOAA.NERRS:gndbcwq:1,2014-09-04T10:00:00Z,30.3836,-88.4364,0.87,26.8,1111122 
NERRS,ioos:station:NOAA.NERRS:gndbcwq:1,2014-09-04T11:00:00Z,30.3836,-88.4364,0.9,26.4,1111122 
NERRS,ioos:station:NOAA.NERRS:gndbcwq:1,2014-09-04T12:00:00Z,30.3836,-88.4364,0.89,26.6,1111122 
NERRS,ioos:station:NOAA.NERRS:gndbcwq:1,2014-09-04T13:00:00Z,30.3836,-88.4364,0.84,26.8,1111122 
NERRS,ioos:station:NOAA.NERRS:gndbcwq:1,2014-09-04T14:00:00Z,30.3836,-88.4364,0.81,26.9,1111122 
NERRS,ioos:station:NOAA.NERRS:gndbcwq:1,2014-09-04T15:00:00Z,30.3836,-88.4364,0.77,27.8,1111122 
NERRS,ioos:station:NOAA.NERRS:gndbcwq:1,2014-09-04T16:00:00Z,30.3836,-88.4364,0.74,28.1,1111122 
NERRS,ioos:station:NOAA.NERRS:gndbcwq:1,2014-09-04T17:00:00Z,30.3836,-88.4364,0.68,28.2,1111122 
NERRS,ioos:station:NOAA.NERRS:gndbcwq:1,2014-09-04T18:00:00Z,30.3836,-88.4364,0.59,28.5,1111122 
NERRS,ioos:station:NOAA.NERRS:gndbcwq:1,2014-09-04T19:00:00Z,30.3836,-88.4364,0.5,28.3,1111122 
NERRS,ioos:station:NOAA.NERRS:gndbcwq:1,2014-09-04T20:00:00Z,30.3836,-88.4364,0.45,27.9,1111122 
NERRS,ioos:station:NOAA.NERRS:gndbcwq:1,2014-09-04T21:00:00Z,30.3836,-88.4364,0.41,27.8,1111122 
NERRS,ioos:station:NOAA.NERRS:gndbcwq:1,2014-09-04T22:00:00Z,30.3836,-88.4364,0.38,27.7,1111122 
NERRS,ioos:station:NOAA.NERRS:gndbcwq:1,2014-09-04T23:00:00Z,30.3836,-88.4364,0.39,27.9,1111122 
NERRS,ioos:station:NOAA.NERRS:gndbcwq:1,2014-09-05T00:00:00Z,30.3836,-88.4364,0.41,27.9,1111122 
NERRS,ioos:station:NOAA.NERRS:gndbcwq:1,2014-09-05T01:00:00Z,30.3836,-88.4364,0.44,27.8,1111122 
NERRS,ioos:station:NOAA.NERRS:gndbcwq:1,2014-09-05T02:00:00Z,30.3836,-88.4364,0.46,27.8,1111122 
NERRS,ioos:station:NOAA.NERRS:gndbcwq:1,2014-09-05T03:00:00Z,30.3836,-88.4364,0.56,28.1,1111122 
NERRS,ioos:station:NOAA.NERRS:gndbcwq:1,2014-09-05T04:00:00Z,30.3836,-88.4364,0.62,28.4,1111122 
NERRS,ioos:station:NOAA.NERRS:gndbcwq:1,2014-09-05T05:00:00Z,30.3836,-88.4364,0.65,28.5,1111122 
NERRS,ioos:station:NOAA.NERRS:gndbcwq:1,2014-09-05T06:00:00Z,30.3836,-88.4364,0.66,28.6,1111122 
NERRS,ioos:station:NOAA.NERRS:gndbcwq:1,2014-09-05T07:00:00Z,30.3836,-88.4364,0.68,28.6,1111122 
NERRS,ioos:station:NOAA.NERRS:gndbcwq:1,2014-09-05T08:00:00Z,30.3836,-88.4364,0.72,28.7,1111122 
NERRS,ioos:station:NOAA.NERRS:gndbcwq:1,2014-09-05T09:00:00Z,30.3836,-88.4364,0.78,28.8,1111122 
NERRS,ioos:station:NOAA.NERRS:gndbcwq:1,2014-09-05T10:00:00Z,30.3836,-88.4364,0.84,28.6,1111122 
NERRS,ioos:station:NOAA.NERRS:gndbcwq:1,2014-09-05T12:00:00Z,30.3836,-88.4364,0.89,28.0,1111122 
NERRS,ioos:station:NOAA.NERRS:gndbcwq:1,2014-09-05T13:00:00Z,30.3836,-88.4364,0.87,28.4,1111122 
NERRS,ioos:station:NOAA.NERRS:gndbcwq:1,2014-09-05T14:00:00Z,30.3836,-88.4364,0.85,28.4,1111122 
NERRS,ioos:station:NOAA.NERRS:gndbcwq:1,2014-09-05T15:00:00Z,30.3836,-88.4364,0.84,28.5,1111122 
NERRS,ioos:station:NOAA.NERRS:gndbcwq:1,2014-09-05T16:00:00Z,30.3836,-88.4364,0.8,28.7,1111122 
NERRS,ioos:station:NOAA.NERRS:gndbcwq:1,2014-09-05T17:00:00Z,30.3836,-88.4364,0.73,28.9,1111122 
NERRS,ioos:station:NOAA.NERRS:gndbcwq:1,2014-09-05T18:00:00Z,30.3836,-88.4364,0.64,29.1,1111122 
NERRS,ioos:station:NOAA.NERRS:gndbcwq:1,2014-09-05T19:00:00Z,30.3836,-88.4364,0.52,29.2,1111122 
NERRS,ioos:station:NOAA.NERRS:gndbcwq:1,2014-09-05T20:00:00Z,30.3836,-88.4364,0.43,29.1,1111122 
NERRS,ioos:station:NOAA.NERRS:gndbcwq:1,2014-09-05T21:00:00Z,30.3836,-88.4364,0.39,28.4,1111122 
NERRS,ioos:station:NOAA.NERRS:gndbcwq:1,2014-09-05T22:00:00Z,30.3836,-88.4364,0.37,28.2,1111122 
NERRS,ioos:station:NOAA.NERRS:gndbcwq:1,2014-09-05T23:00:00Z,30.3836,-88.4364,0.36,28.0,1111122 
NERRS,ioos:station:NOAA.NERRS:gndbcwq:1,2014-09-06T00:00:00Z,30.3836,-88.4364,0.37,28.0,1111122 
NERRS,ioos:station:NOAA.NERRS:gndbcwq:1,2014-09-06T01:00:00Z,30.3836,-88.4364,0.39,28.5,1111122 
NERRS,ioos:station:NOAA.NERRS:gndbcwq:1,2014-09-06T02:00:00Z,30.3836,-88.4364,0.43,28.6,1111122 
NERRS,ioos:station:NOAA.NERRS:gndbcwq:1,2014-09-06T03:00:00Z,30.3836,-88.4364,0.47,28.7,1111122 
NERRS,ioos:station:NOAA.NERRS:gndbcwq:1,2014-09-06T04:00:00Z,30.3836,-88.4364,0.51,28.9,1111122 
NERRS,ioos:station:NOAA.NERRS:gndbcwq:1,2014-09-06T05:00:00Z,30.3836,-88.4364,0.56,29.0,1111122 
NERRS,ioos:station:NOAA.NERRS:gndbcwq:1,2014-09-06T06:00:00Z,30.3836,-88.4364,0.57,29.0,1111122 
NERRS,ioos:station:NOAA.NERRS:gndbcwq:1,2014-09-06T07:00:00Z,30.3836,-88.4364,0.61,29.0,1111122 
NERRS,ioos:station:NOAA.NERRS:gndbcwq:1,2014-09-06T08:00:00Z,30.3836,-88.4364,0.62,29.0,1111122 
NERRS,ioos:station:NOAA.NERRS:gndbcwq:1,2014-09-06T09:00:00Z,30.3836,-88.4364,0.65,29.0,1111122 
NERRS,ioos:station:NOAA.NERRS:gndbcwq:1,2014-09-06T10:00:00Z,30.3836,-88.4364,0.68,29.0,1111122 
NERRS,ioos:station:NOAA.NERRS:gndbcwq:1,2014-09-06T11:00:00Z,30.3836,-88.4364,0.72,29.1,1111122 
NERRS,ioos:station:NOAA.NERRS:gndbcwq:1,2014-09-06T12:00:00Z,30.3836,-88.4364,0.76,29.1,1111122 
NERRS,ioos:station:NOAA.NERRS:gndbcwq:1,2014-09-06T13:00:00Z,30.3836,-88.4364,0.77,29.0,1111122 
NERRS,ioos:station:NOAA.NERRS:gndbcwq:1,2014-09-06T14:00:00Z,30.3836,-88.4364,0.77,29.0,1111122 
NERRS,ioos:station:NOAA.NERRS:gndbcwq:1,2014-09-06T15:00:00Z,30.3836,-88.4364,0.76,29.0,1111122 
NERRS,ioos:station:NOAA.NERRS:gndbcwq:1,2014-09-06T16:00:00Z,30.3836,-88.4364,0.74,29.1,1111122 
NERRS,ioos:station:NOAA.NERRS:gndbcwq:1,2014-09-06T17:00:00Z,30.3836,-88.4364,0.71,29.2,1111122 
NERRS,ioos:station:NOAA.NERRS:gndbcwq:1,2014-09-06T18:00:00Z,30.3836,-88.4364,0.65,29.1,1111122 
NERRS,ioos:station:NOAA.NERRS:gndbcwq:1,2014-09-06T19:00:00Z,30.3836,-88.4364,0.55,29.1,1111122 
NERRS,ioos:station:NOAA.NERRS:gndbcwq:1,2014-09-06T20:00:00Z,30.3836,-88.4364,0.45,29.1,1111122 
NERRS,ioos:station:NOAA.NERRS:gndbcwq:1,2014-09-06T21:00:00Z,30.3836,-88.4364,0.4,28.5,1111122 
NERRS,ioos:station:NOAA.NERRS:gndbcwq:1,2014-09-06T22:00:00Z,30.3836,-88.4364,0.35,28.5,1111122 
NERRS,ioos:station:NOAA.NERRS:gndbcwq:1,2014-09-06T23:00:00Z,30.3836,-88.4364,0.34,28.2,1111122 
NERRS,ioos:station:NOAA.NERRS:gndbcwq:1,2014-09-07T00:00:00Z,30.3836,-88.4364,0.35,28.2,1111122 
NERRS,ioos:station:NOAA.NERRS:gndbcwq:1,2014-09-07T01:00:00Z,30.3836,-88.4364,0.35,28.1,1111122 
NERRS,ioos:station:NOAA.NERRS:gndbcwq:1,2014-09-07T02:00:00Z,30.3836,-88.4364,0.39,28.4,1111122 
NERRS,ioos:station:NOAA.NERRS:gndbcwq:1,2014-09-07T03:00:00Z,30.3836,-88.4364,0.41,28.6,1111122 
NERRS,ioos:station:NOAA.NERRS:gndbcwq:1,2014-09-07T04:00:00Z,30.3836,-88.4364,0.46,28.7,1111122 
NERRS,ioos:station:NOAA.NERRS:gndbcwq:1,2014-09-07T05:00:00Z,30.3836,-88.4364,0.52,28.9,1111122 
NERRS,ioos:station:NOAA.NERRS:gndbcwq:1,2014-09-07T06:00:00Z,30.3836,-88.4364,0.52,28.9,1111122 
NERRS,ioos:station:NOAA.NERRS:gndbcwq:1,2014-09-07T07:00:00Z,30.3836,-88.4364,0.51,28.9,1111122 
NERRS,ioos:station:NOAA.NERRS:gndbcwq:1,2014-09-07T08:00:00Z,30.3836,-88.4364,0.5,28.9,1111122 
NERRS,ioos:station:NOAA.NERRS:gndbcwq:1,2014-09-07T09:00:00Z,30.3836,-88.4364,0.52,28.9,1111122 
NERRS,ioos:station:NOAA.NERRS:gndbcwq:1,2014-09-07T10:00:00Z,30.3836,-88.4364,0.59,29.0,1111122 
NERRS,ioos:station:NOAA.NERRS:gndbcwq:1,2014-09-07T11:00:00Z,30.3836,-88.4364,0.64,29.1,1111122 
NERRS,ioos:station:NOAA.NERRS:gndbcwq:1,2014-09-07T12:00:00Z,30.3836,-88.4364,0.71,29.1,1111122 
NERRS,ioos:station:NOAA.NERRS:gndbcwq:1,2014-09-07T13:00:00Z,30.3836,-88.4364,0.77,29.1,1111122 
NERRS,ioos:station:NOAA.NERRS:gndbcwq:1,2014-09-07T14:00:00Z,30.3836,-88.4364,0.81,28.7,1111122 
NERRS,ioos:station:NOAA.NERRS:gndbcwq:1,2014-09-07T15:00:00Z,30.3836,-88.4364,0.83,28.5,1111122 
NERRS,ioos:station:NOAA.NERRS:gndbcwq:1,2014-09-07T16:00:00Z,30.3836,-88.4364,0.81,28.5,1111122 
NERRS,ioos:station:NOAA.NERRS:gndbcwq:1,2014-09-07T17:00:00Z,30.3836,-88.4364,0.77,28.7,1111122 
NERRS,ioos:station:NOAA.NERRS:gndbcwq:1,2014-09-07T18:00:00Z,30.3836,-88.4364,0.73,28.8,1111122 
NERRS,ioos:station:NOAA.NERRS:gndbcwq:1,2014-09-07T19:00:00Z,30.3836,-88.4364,0.68,29.0,1111122 
NERRS,ioos:station:NOAA.NERRS:gndbcwq:1,2014-09-07T20:00:00Z,30.3836,-88.4364,0.59,29.1,1111122 
NERRS,ioos:station:NOAA.NERRS:gndbcwq:1,2014-09-07T21:00:00Z,30.3836,-88.4364,0.48,29.2,1111122 
NERRS,ioos:station:NOAA.NERRS:gndbcwq:1,2014-09-07T22:00:00Z,30.3836,-88.4364,0.41,29.0,1111122 
NERRS,ioos:station:NOAA.NERRS:gndbcwq:1,2014-09-07T23:00:00Z,30.3836,-88.4364,0.36,28.7,1111122 
NERRS,ioos:station:NOAA.NERRS:gndbcwq:1,2014-09-08T00:00:00Z,30.3836,-88.4364,0.36,28.5,1111122 
NERRS,ioos:station:NOAA.NERRS:gndbcwq:1,2014-09-08T01:00:00Z,30.3836,-88.4364,0.39,28.5,1111122 
NERRS,ioos:station:NOAA.NERRS:gndbcwq:1,2014-09-08T02:00:00Z,30.3836,-88.4364,0.41,28.8,1111122 
NERRS,ioos:station:NOAA.NERRS:gndbcwq:1,2014-09-08T03:00:00Z,30.3836,-88.4364,0.4,28.4,1111122 
NERRS,ioos:station:NOAA.NERRS:gndbcwq:1,2014-09-08T04:00:00Z,30.3836,-88.4364,0.44,28.6,1111122 
NERRS,ioos:station:NOAA.NERRS:gndbcwq:1,2014-09-08T05:00:00Z,30.3836,-88.4364,0.48,28.7,1111122 
NERRS,ioos:station:NOAA.NERRS:gndbcwq:1,2014-09-08T06:00:00Z,30.3836,-88.4364,0.52,28.9,1111122 
NERRS,ioos:station:NOAA.NERRS:gndbcwq:1,2014-09-08T07:00:00Z,30.3836,-88.4364,0.54,28.9,1111122 
NERRS,ioos:station:NOAA.NERRS:gndbcwq:1,2014-09-08T08:00:00Z,30.3836,-88.4364,0.51,28.9,1111122 
NERRS,ioos:station:NOAA.NERRS:gndbcwq:1,2014-09-08T09:00:00Z,30.3836,-88.4364,0.53,28.9,1111122 
NERRS,ioos:station:NOAA.NERRS:gndbcwq:1,2014-09-08T10:00:00Z,30.3836,-88.4364,0.56,29.0,1111122 
NERRS,ioos:station:NOAA.NERRS:gndbcwq:1,2014-09-08T12:00:00Z,30.3836,-88.4364,0.64,29.1,1111122 
NERRS,ioos:station:NOAA.NERRS:gndbcwq:1,2014-09-08T13:00:00Z,30.3836,-88.4364,0.7,29.1,1111122 
NERRS,ioos:station:NOAA.NERRS:gndbcwq:1,2014-09-08T14:00:00Z,30.3836,-88.4364,0.76,29.1,1111122 
NERRS,ioos:station:NOAA.NERRS:gndbcwq:1,2014-09-08T15:00:00Z,30.3836,-88.4364,0.81,28.9,1111122 
NERRS,ioos:station:NOAA.NERRS:gndbcwq:1,2014-09-08T16:00:00Z,30.3836,-88.4364,0.8,28.9,1111122 
NERRS,ioos:station:NOAA.NERRS:gndbcwq:1,2014-09-08T17:00:00Z,30.3836,-88.4364,0.77,28.9,1111122 
NERRS,ioos:station:NOAA.NERRS:gndbcwq:1,2014-09-08T18:00:00Z,30.3836,-88.4364,0.75,28.9,1111122 
NERRS,ioos:station:NOAA.NERRS:gndbcwq:1,2014-09-08T19:00:00Z,30.3836,-88.4364,0.75,28.9,1111122 
NERRS,ioos:station:NOAA.NERRS:gndbcwq:1,2014-09-08T20:00:00Z,30.3836,-88.4364,0.7,29.0,1111122 
NERRS,ioos:station:NOAA.NERRS:gndbcwq:1,2014-09-08T21:00:00Z,30.3836,-88.4364,0.62,29.0,1111122 
NERRS,ioos:station:NOAA.NERRS:gndbcwq:1,2014-09-08T22:00:00Z,30.3836,-88.4364,0.5,29.1,1111122 
NERRS,ioos:station:NOAA.NERRS:gndbcwq:1,2014-09-08T23:00:00Z,30.3836,-88.4364,0.44,28.9,1111122 
NERRS,ioos:station:NOAA.NERRS:gndbcwq:1,2014-09-09T00:00:00Z,30.3836,-88.4364,0.48,28.8,1111122 
NERRS,ioos:station:NOAA.NERRS:gndbcwq:1,2014-09-09T01:00:00Z,30.3836,-88.4364,0.54,28.9,1111122 
NERRS,ioos:station:NOAA.NERRS:gndbcwq:1,2014-09-09T02:00:00Z,30.3836,-88.4364,0.56,28.9,1111122 
NERRS,ioos:station:NOAA.NERRS:gndbcwq:1,2014-09-09T03:00:00Z,30.3836,-88.4364,0.56,28.9,1111122 
NERRS,ioos:station:NOAA.NERRS:gndbcwq:1,2014-09-09T04:00:00Z,30.3836,-88.4364,0.54,28.7,1111122 
NERRS,ioos:station:NOAA.NERRS:gndbcwq:1,2014-09-09T05:00:00Z,30.3836,-88.4364,0.58,28.8,1111122 
NERRS,ioos:station:NOAA.NERRS:gndbcwq:1,2014-09-09T07:00:00Z,30.3836,-88.4364,0.61,28.9,1111122 
NERRS,ioos:station:NOAA.NERRS:gndbcwq:1,2014-09-09T08:00:00Z,30.3836,-88.4364,0.57,28.9,1111122 
NERRS,ioos:station:NOAA.NERRS:gndbcwq:1,2014-09-09T09:00:00Z,30.3836,-88.4364,0.52,28.7,1111122 
NERRS,ioos:station:NOAA.NERRS:gndbcwq:1,2014-09-09T10:00:00Z,30.3836,-88.4364,0.5,28.5,1111122 
NERRS,ioos:station:NOAA.NERRS:gndbcwq:1,2014-09-09T11:00:00Z,30.3836,-88.4364,0.5,28.5,1111122 
NERRS,ioos:station:NOAA.NERRS:gndbcwq:1,2014-09-09T12:00:00Z,30.3836,-88.4364,0.54,28.6,1111122 
NERRS,ioos:station:NOAA.NERRS:gndbcwq:1,2014-09-09T13:00:00Z,30.3836,-88.4364,0.62,28.8,1111122 
NERRS,ioos:station:NOAA.NERRS:gndbcwq:1,2014-09-09T14:00:00Z,30.3836,-88.4364,0.69,28.9,1111122 
NERRS,ioos:station:NOAA.NERRS:gndbcwq:1,2014-09-09T15:00:00Z,30.3836,-88.4364,0.74,28.9,1111122 
NERRS,ioos:station:NOAA.NERRS:gndbcwq:1,2014-09-09T16:00:00Z,30.3836,-88.4364,0.74,28.9,1111122 
NERRS,ioos:station:NOAA.NERRS:gndbcwq:1,2014-09-09T17:00:00Z,30.3836,-88.4364,0.74,28.9,1111122 
NERRS,ioos:station:NOAA.NERRS:gndbcwq:1,2014-09-09T18:00:00Z,30.3836,-88.4364,0.74,28.9,1111122 
NERRS,ioos:station:NOAA.NERRS:gndbcwq:1,2014-09-10T01:00:00Z,30.3836,-88.4364,0.55,28.7,1111122 
NERRS,ioos:station:NOAA.NERRS:gndbcwq:1,2014-09-10T02:00:00Z,30.3836,-88.4364,0.62,28.7,1111122 
NERRS,ioos:station:NOAA.NERRS:gndbcwq:1,2014-09-10T03:00:00Z,30.3836,-88.4364,0.66,28.8,1111122 
NERRS,ioos:station:NOAA.NERRS:gndbcwq:1,2014-09-10T04:00:00Z,30.3836,-88.4364,0.66,28.7,1111122 
NERRS,ioos:station:NOAA.NERRS:gndbcwq:1,2014-09-10T05:00:00Z,30.3836,-88.4364,0.61,28.7,1111122 
NERRS,ioos:station:NOAA.NERRS:gndbcwq:1,2014-09-10T06:00:00Z,30.3836,-88.4364,0.57,28.7,1111122 
NERRS,ioos:station:NOAA.NERRS:gndbcwq:1,2014-09-10T07:00:00Z,30.3836,-88.4364,0.59,28.7,1111122 
NERRS,ioos:station:NOAA.NERRS:gndbcwq:1,2014-09-10T08:00:00Z,30.3836,-88.4364,0.62,28.7,1111122 
NERRS,ioos:station:NOAA.NERRS:gndbcwq:1,2014-09-10T09:00:00Z,30.3836,-88.4364,0.6,28.6,1111122 
NERRS,ioos:station:NOAA.NERRS:gndbcwq:1,2014-09-10T11:00:00Z,30.3836,-88.4364,0.46,28.2,1111122 
NERRS,ioos:station:NOAA.NERRS:gndbcwq:1,2014-09-10T12:00:00Z,30.3836,-88.4364,0.45,28.1,1111122 
NERRS,ioos:station:NOAA.NERRS:gndbcwq:1,2014-09-10T13:00:00Z,30.3836,-88.4364,0.52,28.3,1111122 
NERRS,ioos:station:NOAA.NERRS:gndbcwq:1,2014-09-10T14:00:00Z,30.3836,-88.4364,0.59,28.5,1111122 
NERRS,ioos:station:NOAA.NERRS:gndbcwq:1,2014-09-10T15:00:00Z,30.3836,-88.4364,0.63,28.5,1111122 
NERRS,ioos:station:NOAA.NERRS:gndbcwq:1,2014-09-10T16:00:00Z,30.3836,-88.4364,0.67,28.6,1111122 
NERRS,ioos:station:NOAA.NERRS:gndbcwq:1,2014-09-10T17:00:00Z,30.3836,-88.4364,0.67,28.6,1111122 
NERRS,ioos:station:NOAA.NERRS:gndbcwq:1,2014-09-10T18:00:00Z,30.3836,-88.4364,0.67,28.6,1111122 
NERRS,ioos:station:NOAA.NERRS:gndbcwq:1,2014-09-10T19:00:00Z,30.3836,-88.4364,0.7,28.6,1111122 
NERRS,ioos:station:NOAA.NERRS:gndbcwq:1,2014-09-10T20:00:00Z,30.3836,-88.4364,0.73,28.5,1111122 
NERRS,ioos:station:NOAA.NERRS:gndbcwq:1,2014-09-10T21:00:00Z,30.3836,-88.4364,0.72,28.5,1111122 
NERRS,ioos:station:NOAA.NERRS:gndbcwq:1,2014-09-10T22:00:00Z,30.3836,-88.4364,0.68,28.5,1111122 
NERRS,ioos:station:NOAA.NERRS:gndbcwq:1,2014-09-10T23:00:00Z,30.3836,-88.4364,0.63,28.5,1111122 
NERRS,ioos:station:NOAA.NERRS:gndbcwq:1,2014-09-11T00:00:00Z,30.3836,-88.4364,0.61,28.6,1111122 
NERRS,ioos:station:NOAA.NERRS:gndbcwq:1,2014-09-11T06:00:00Z,30.3836,-88.4364,0.75,28.4,1111122 
NERRS,ioos:station:NOAA.NERRS:gndbcwq:1,2014-09-11T11:00:00Z,30.3836,-88.4364,0.48,28.6,1111122 
NERRS,ioos:station:NOAA.NERRS:gndbcwq:1,2014-09-11T12:00:00Z,30.3836,-88.4364,0.44,28.1,1111122 
NERRS,ioos:station:NOAA.NERRS:gndbcwq:1,2014-09-11T14:00:00Z,30.3836,-88.4364,0.49,28.3,1111122 
NERRS,ioos:station:NOAA.NERRS:gndbcwq:1,2014-09-11T15:00:00Z,30.3836,-88.4364,0.54,28.3,1111122 
NERRS,ioos:station:NOAA.NERRS:gndbcwq:1,2014-09-11T16:00:00Z,30.3836,-88.4364,0.58,28.3,1111122 
NERRS,ioos:station:NOAA.NERRS:gndbcwq:1,2014-09-11T17:00:00Z,30.3836,-88.4364,0.59,28.4,1111122 
NERRS,ioos:station:NOAA.NERRS:gndbcwq:1,2014-09-11T17:45:00Z,30.3836,-88.4364,0.59,28.5,1111122 
NERRS,ioos:station:NOAA.NERRS:gndbcwq:1,2014-09-11T19:00:00Z,30.3836,-88.4364,0.6,28.4,1111122 
NERRS,ioos:station:NOAA.NERRS:gndbcwq:1,2014-09-11T20:00:00Z,30.3836,-88.4364,0.63,28.5,1111122 
NERRS,ioos:station:NOAA.NERRS:gndbcwq:1,2014-09-11T21:00:00Z,30.3836,-88.4364,0.65,28.5,1111122 
NERRS,ioos:station:NOAA.NERRS:gndbcwq:1,2014-09-11T22:00:00Z,30.3836,-88.4364,0.65,28.4,1111122 
NERRS,ioos:station:NOAA.NERRS:gndbcwq:1,2014-09-11T23:00:00Z,30.3836,-88.4364,0.63,28.4,1111122 
NERRS,ioos:station:NOAA.NERRS:gndbcwq:1,2014-09-12T00:00:00Z,30.3836,-88.4364,0.63,28.4,1111122 
NERRS,ioos:station:NOAA.NERRS:gndbcwq:1,2014-09-12T01:00:00Z,30.3836,-88.4364,0.67,28.4,1111122 
NERRS,ioos:station:NOAA.NERRS:gndbcwq:1,2014-09-12T02:00:00Z,30.3836,-88.4364,0.71,28.4,1111122 
NERRS,ioos:station:NOAA.NERRS:gndbcwq:1,2014-09-12T03:00:00Z,30.3836,-88.4364,0.76,28.4,1111122 
NERRS,ioos:station:NOAA.NERRS:gndbcwq:1,2014-09-12T04:00:00Z,30.3836,-88.4364,0.8,28.3,1111122 
NERRS,ioos:station:NOAA.NERRS:gndbcwq:1,2014-09-12T05:00:00Z,30.3836,-88.4364,0.82,28.1,1111122 
NERRS,ioos:station:NOAA.NERRS:gndbcwq:1,2014-09-12T06:00:00Z,30.3836,-88.4364,0.8,28.2,1111122 
NERRS,ioos:station:NOAA.NERRS:gndbcwq:1,2014-09-12T07:00:00Z,30.3836,-88.4364,0.76,28.3,1111122 
NERRS,ioos:station:NOAA.NERRS:gndbcwq:1,2014-09-12T08:00:00Z,30.3836,-88.4364,0.73,28.3,1111122 
NERRS,ioos:station:NOAA.NERRS:gndbcwq:1,2014-09-12T09:00:00Z,30.3836,-88.4364,0.7,28.3,1111122 
NERRS,ioos:station:NOAA.NERRS:gndbcwq:1,2014-09-12T10:00:00Z,30.3836,-88.4364,0.64,28.4,1111122 
NERRS,ioos:station:NOAA.NERRS:gndbcwq:1,2014-09-12T11:00:00Z,30.3836,-88.4364,0.56,28.5,1111122 